Weather History for Omaha, NE

Change the Weather History Date:

Sunday, December 9, 2012

  Actual Average Record
Temperature  
Mean Temperature 27 °F 27 °F  
Max Temperature 38 °F 37 °F 64 °F (1890)
Min Temperature 15 °F 18 °F -11 °F (1919)
Degree Days  
Heating Degree Days 38 38  
Month to date heating degree days 212 325  
Since 1 July heating degree days 1386 1595  
Cooling Degree Days 0 0  
Month to date cooling degree days 0 0  
Year to date cooling degree days 1649 1113  
Moisture  
Dew Point 18 °F    
Average Humidity 73    
Maximum Humidity 92    
Minimum Humidity 54    
Precipitation  
Precipitation 0.01 in 0.05 in 0.81 in (1899)
Month to date precipitation 0.03 0.37  
Year to date precipitation 20.79 29.95  
Snow  
Snow T in 0.20 in - ()
Month to date snowfall T 1.8  
Since 1 July snowfall T 4.6  
Snow Depth 0.00 in    
Sea Level Pressure  
Sea Level Pressure 30.00 in    
Wind  
Wind Speed 17 mph (WNW)    
Max Wind Speed 31 mph    
Max Gust Speed 40 mph    
Visibility 9 miles    
Events Rain , Snow    
T = Trace of Precipitation, MM = Missing Value Source: NWS Daily Summary

Daily Weather History Graph

Daily Weather History Graph

Search for Another Location

Airport:

Trip Planner

Search our weather history database for the weather conditions in past years. The results will help you decide how hot, cold, wet, or windy it might be!

Date:

Astronomy

Dec. 09, 2012 Rise Set
Actual Time 7:38 AM CST 4:54 PM CST
Civil Twilight 7:06 AM CST 5:25 PM CST
Nautical Twilight 6:32 AM CST 6:00 PM CST
Astronomical Twilight 5:58 AM CST 6:33 PM CST
Moon 3:10 AM CST (12/9) 2:03 PM CST (12/9)
Length of Visible Light 10h 18m
Length of Day
9h 16m
Waning Crescent, 18% of the Moon is Illuminated
Dec 9
Waning Crescent
Dec 13
New
Dec 19
First Quarter
Dec 28
Full
Jan 4
Last Quarter

Hourly Weather History & Observations

Time (CST) Temp. Windchill Dew Point Humidity Pressure Visibility Wind Dir Wind Speed Gust Speed Precip Events Conditions
12:48 AM 35.6 °F 27.1 °F 30.2 °F 81% 29.87 in 8.0 mi SSE 12.7 mph - N/A   Overcast
12:52 AM 36.0 °F 28.0 °F 30.9 °F 82% 29.90 in 8.0 mi SSE 11.5 mph - N/A   Overcast
1:52 AM 37.0 °F 31.0 °F 32.0 °F 82% 29.90 in 8.0 mi SSE 8.1 mph - N/A   Overcast
2:52 AM 37.0 °F 31.0 °F 33.1 °F 86% 29.90 in 6.0 mi SE 8.1 mph - 0.01 in Rain Light Rain
3:07 AM 37.4 °F 32.1 °F 33.8 °F 87% 29.87 in 6.0 mi SE 6.9 mph - 0.00 in Rain Light Rain
3:52 AM 37.0 °F 31.0 °F 34.0 °F 89% 29.87 in 5.0 mi SSE 8.1 mph - 0.00 in   Overcast
4:52 AM 37.0 °F 30.4 °F 34.0 °F 89% 29.85 in 5.0 mi SSE 9.2 mph - 0.00 in Rain Light Rain
5:30 AM 37.4 °F 32.8 °F 35.6 °F 93% 29.86 in 5.0 mi South 5.8 mph - 0.00 in   Overcast
5:38 AM 37.4 °F 33.8 °F 35.6 °F 93% 29.86 in 5.0 mi South 4.6 mph - 0.00 in   Overcast
5:52 AM 37.0 °F 31.6 °F 35.1 °F 93% 29.89 in 5.0 mi SSW 6.9 mph - 0.00 in   Overcast
6:52 AM 37.9 °F 33.5 °F 35.1 °F 89% 29.89 in 5.0 mi SW 5.8 mph - N/A   Overcast
7:28 AM 35.6 °F 25.5 °F 28.4 °F 75% 29.89 in 10.0 mi WNW 17.3 mph 25.3 mph N/A   Mostly Cloudy
7:52 AM 35.1 °F 25.5 °F 28.0 °F 76% 29.92 in 10.0 mi WNW 15.0 mph 20.7 mph N/A   Overcast
8:52 AM 30.0 °F 17.9 °F 21.9 °F 72% 29.95 in 10.0 mi WNW 18.4 mph - N/A   Overcast
9:52 AM 27.0 °F 12.8 °F 17.1 °F 66% 29.99 in 10.0 mi WNW 21.9 mph 29.9 mph N/A   Mostly Cloudy
10:52 AM 28.0 °F 14.6 °F 16.0 °F 61% 30.01 in 10.0 mi NW 20.7 mph - N/A   Scattered Clouds
11:52 AM 28.0 °F 14.9 °F 15.1 °F 58% 30.00 in 10.0 mi WNW 19.6 mph 25.3 mph N/A   Mostly Cloudy
12:37 PM 26.6 °F 12.0 °F 15.8 °F 64% 29.96 in 10.0 mi NW 23.0 mph 32.2 mph N/A   Mostly Cloudy
12:52 PM 27.0 °F 11.9 °F 14.0 °F 58% 29.99 in 10.0 mi WNW 25.3 mph 34.5 mph N/A   Mostly Cloudy
1:52 PM 26.1 °F 10.7 °F 12.0 °F 55% 30.01 in 10.0 mi NW 25.3 mph 35.7 mph N/A   Overcast
1:59 PM 24.8 °F 10.0 °F 10.4 °F 54% 29.98 in 10.0 mi NW 21.9 mph 35.7 mph N/A   Overcast
2:52 PM 23.0 °F 7.2 °F 9.0 °F 55% 30.03 in 10.0 mi WNW 23.0 mph 34.5 mph N/A   Overcast
3:52 PM 21.0 °F 5.0 °F 9.0 °F 60% 30.06 in 10.0 mi NW 21.9 mph 34.5 mph N/A   Overcast
4:02 PM 21.2 °F 3.9 °F 8.6 °F 58% 30.03 in 10.0 mi WNW 26.5 mph - N/A   Overcast
4:52 PM 19.9 °F 3.2 °F 8.1 °F 60% 30.09 in 10.0 mi NW 23.0 mph 32.2 mph N/A   Overcast
5:52 PM 19.0 °F 4.5 °F 8.1 °F 62% 30.11 in 10.0 mi NW 16.1 mph 29.9 mph N/A   Overcast
6:52 PM 18.0 °F 2.6 °F 8.1 °F 65% 30.13 in 9.0 mi NW 17.3 mph 27.6 mph 0.00 in Snow Light Snow
7:52 PM 17.1 °F 1.0 °F 7.0 °F 65% 30.15 in 10.0 mi NW 18.4 mph 27.6 mph 0.00 in Snow Light Snow
8:34 PM 15.8 °F -3.7 °F 6.8 °F 68% 30.11 in 10.0 mi NW 27.6 mph 40.3 mph 0.00 in   Overcast
8:52 PM 16.0 °F -0.9 °F 6.1 °F 65% 30.17 in 10.0 mi NW 19.6 mph 28.8 mph 0.00 in   Overcast
9:17 PM 15.8 °F -3.4 °F 5.0 °F 62% 30.12 in 10.0 mi NNW 26.5 mph 36.8 mph N/A   Overcast
9:52 PM 16.0 °F -2.5 °F 5.0 °F 62% 30.16 in 10.0 mi NNW 24.2 mph 32.2 mph N/A   Overcast
10:52 PM 16.0 °F -1.7 °F 5.0 °F 62% 30.16 in 10.0 mi NW 21.9 mph 32.2 mph N/A   Overcast
11:52 PM 16.0 °F 1.1 °F 3.9 °F 59% 30.16 in 10.0 mi NW 15.0 mph 27.6 mph N/A   Overcast